Time,TemperatureF,DewpointF,PressureIn,WindDirection,WindDirectionDegrees,WindSpeedMPH,WindSpeedGustMPH,Humidity,HourlyPrecipIn,Conditions,Clouds,dailyrainin,SoftwareType,DateUTC
2013-04-14 00:00:00,72.0,70.2,29.93,NW,319,0.0,0.0,94,0.00,RA,OVC,0.00,WeatherDisplay:10.37,2013-04-14 04:00:00,
2013-04-14 00:05:00,72.0,70.2,29.93,NW,319,0.0,0.0,94,0.00,RA,OVC,0.00,WeatherDisplay:10.37,2013-04-14 04:05:00,
2013-04-14 00:10:00,72.0,70.2,29.93,NW,319,0.0,0.0,94,0.00,,OVC,0.00,WeatherDisplay:10.37,2013-04-14 04:10:00,
2013-04-14 00:15:00,71.8,70.0,29.93,NW,319,0.0,0.0,94,0.00,,OVC,0.00,WeatherDisplay:10.37,2013-04-14 04:15:00,
2013-04-14 00:20:00,72.0,70.2,29.93,NW,319,0.0,0.0,94,0.00,,OVC,0.00,WeatherDisplay:10.37,2013-04-14 04:20:00,
2013-04-14 00:25:00,72.0,70.2,29.93,NW,319,0.0,0.0,94,0.00,,OVC,0.00,WeatherDisplay:10.37,2013-04-14 04:25:00,
2013-04-14 00:30:00,72.0,70.2,29.93,NW,319,0.0,0.0,94,0.00,,OVC,0.00,WeatherDisplay:10.37,2013-04-14 04:30:00,
2013-04-14 00:35:00,72.0,70.2,29.93,NW,319,0.0,0.0,94,0.00,,OVC,0.00,WeatherDisplay:10.37,2013-04-14 04:35:00,
2013-04-14 00:40:00,72.0,70.2,29.93,NW,319,0.0,0.0,94,0.00,,OVC,0.00,WeatherDisplay:10.37,2013-04-14 04:40:00,
2013-04-14 00:45:00,71.8,70.0,29.92,NW,319,0.0,0.0,94,0.00,,OVC,0.00,WeatherDisplay:10.37,2013-04-14 04:45:00,
2013-04-14 00:50:00,71.8,70.0,29.92,NW,319,0.0,0.0,94,0.00,,OVC,0.00,WeatherDisplay:10.37,2013-04-14 04:50:00,
2013-04-14 00:55:00,71.6,69.8,29.92,NW,319,0.0,0.0,94,0.00,,OVC,0.00,WeatherDisplay:10.37,2013-04-14 04:55:00,
2013-04-14 01:00:00,71.8,70.3,29.92,NW,319,0.0,0.0,95,0.00,,OVC,0.00,WeatherDisplay:10.37,2013-04-14 05:00:00,
2013-04-14 01:05:00,72.0,70.5,29.92,NW,319,0.0,0.0,95,0.00,,OVC,0.00,WeatherDisplay:10.37,2013-04-14 05:05:00,
2013-04-14 01:10:00,72.1,70.6,29.92,NW,319,0.0,0.0,95,0.00,,OVC,0.00,WeatherDisplay:10.37,2013-04-14 05:10:00,
2013-04-14 01:15:00,72.1,70.6,29.92,NW,319,0.0,0.0,95,0.00,,OVC,0.00,WeatherDisplay:10.37,2013-04-14 05:15:00,
2013-04-14 01:20:00,72.1,70.6,29.92,NW,319,0.0,0.0,95,0.00,,OVC,0.00,WeatherDisplay:10.37,2013-04-14 05:20:00,
2013-04-14 01:25:00,72.0,70.5,29.92,NW,319,0.0,0.0,95,0.00,,OVC,0.00,WeatherDisplay:10.37,2013-04-14 05:25:00,
2013-04-14 01:30:00,72.1,70.6,29.92,NW,319,0.0,0.0,95,0.00,,OVC,0.00,WeatherDisplay:10.37,2013-04-14 05:30:00,
2013-04-14 01:35:00,72.3,70.8,29.92,NW,319,0.0,0.0,95,0.00,,OVC,0.00,WeatherDisplay:10.37,2013-04-14 05:35:00,
2013-04-14 01:40:00,72.1,70.6,29.92,NW,319,0.0,0.0,95,0.00,,OVC,0.00,WeatherDisplay:10.37,2013-04-14 05:40:00,
2013-04-14 01:45:00,72.1,70.6,29.92,NW,319,0.0,0.0,95,0.00,,OVC,0.00,WeatherDisplay:10.37,2013-04-14 05:45:00,
2013-04-14 01:50:00,72.1,70.6,29.92,NW,319,0.0,0.0,95,0.00,,OVC,0.00,WeatherDisplay:10.37,2013-04-14 05:50:00,
2013-04-14 01:55:00,72.0,70.5,29.92,NW,319,0.0,0.0,95,0.00,,OVC,0.00,WeatherDisplay:10.37,2013-04-14 05:55:00,
2013-04-14 02:00:00,72.0,70.5,29.92,NW,319,0.0,0.0,95,0.00,,OVC,0.00,WeatherDisplay:10.37,2013-04-14 06:00:00,
2013-04-14 02:05:00,72.0,70.5,29.92,NW,319,0.0,0.0,95,0.00,,OVC,0.00,WeatherDisplay:10.37,2013-04-14 06:05:00,
2013-04-14 02:10:00,72.0,70.5,29.92,NW,319,0.0,0.0,95,0.00,,OVC,0.00,WeatherDisplay:10.37,2013-04-14 06:10:00,
2013-04-14 02:15:00,71.8,70.3,29.92,NW,319,0.0,0.0,95,0.00,,OVC,0.00,WeatherDisplay:10.37,2013-04-14 06:15:00,
2013-04-14 02:20:00,72.0,70.8,29.92,NW,320,0.0,0.0,96,0.00,,OVC,0.00,WeatherDisplay:10.37,2013-04-14 06:20:00,
2013-04-14 02:25:00,72.1,70.6,29.92,NW,320,0.0,0.0,95,0.00,,OVC,0.00,WeatherDisplay:10.37,2013-04-14 06:25:00,
2013-04-14 02:30:00,72.1,70.6,29.92,NW,320,0.0,0.0,95,0.00,,OVC,0.00,WeatherDisplay:10.37,2013-04-14 06:30:00,
2013-04-14 02:35:00,72.0,70.5,29.92,NW,320,0.0,0.0,95,0.00,,OVC,0.00,WeatherDisplay:10.37,2013-04-14 06:35:00,
2013-04-14 02:40:00,72.0,70.5,29.92,NW,320,0.0,0.0,95,0.00,,OVC,0.00,WeatherDisplay:10.37,2013-04-14 06:40:00,
2013-04-14 02:45:00,72.1,70.9,29.92,NW,319,0.0,0.0,96,0.00,,OVC,0.00,WeatherDisplay:10.37,2013-04-14 06:45:00,
2013-04-14 02:50:00,72.1,70.6,29.92,NW,320,0.0,0.0,95,0.00,,OVC,0.00,WeatherDisplay:10.37,2013-04-14 06:50:00,
2013-04-14 02:55:00,72.1,70.6,29.92,NW,320,0.0,0.0,95,0.00,,OVC,0.00,WeatherDisplay:10.37,2013-04-14 06:55:00,
2013-04-14 03:00:00,72.1,70.6,29.91,NW,320,0.0,0.0,95,0.00,,OVC,0.00,WeatherDisplay:10.37,2013-04-14 07:00:00,
2013-04-14 03:05:00,72.0,70.8,29.91,NW,320,0.0,0.0,96,0.00,,OVC,0.00,WeatherDisplay:10.37,2013-04-14 07:05:00,
2013-04-14 03:11:00,72.0,70.5,29.91,NW,319,0.0,0.0,95,0.00,,OVC,0.00,WeatherDisplay:10.37,2013-04-14 07:11:00,
2013-04-14 03:16:00,72.0,70.5,29.92,NW,320,0.0,0.0,95,0.00,,OVC,0.00,WeatherDisplay:10.37,2013-04-14 07:16:00,
2013-04-14 03:21:00,72.0,70.8,29.92,NW,320,0.0,0.0,96,0.00,,OVC,0.00,WeatherDisplay:10.37,2013-04-14 07:21:00,
2013-04-14 03:26:00,72.0,70.8,29.92,NW,320,0.0,0.0,96,0.00,,OVC,0.00,WeatherDisplay:10.37,2013-04-14 07:26:00,
2013-04-14 03:31:00,72.0,70.8,29.91,NW,320,0.0,0.0,96,0.00,,OVC,0.00,WeatherDisplay:10.37,2013-04-14 07:31:00,
2013-04-14 03:36:00,72.1,70.9,29.91,NW,319,0.0,0.0,96,0.00,,OVC,0.00,WeatherDisplay:10.37,2013-04-14 07:36:00,
2013-04-14 03:41:00,72.0,70.8,29.91,NW,319,0.0,0.0,96,0.00,,OVC,0.00,WeatherDisplay:10.37,2013-04-14 07:41:00,
2013-04-14 03:47:00,72.3,71.1,29.91,NW,320,0.0,0.0,96,0.00,,OVC,0.00,WeatherDisplay:10.37,2013-04-14 07:47:00,
2013-04-14 03:52:00,72.1,70.9,29.91,NW,319,0.0,0.0,96,0.00,,OVC,0.00,WeatherDisplay:10.37,2013-04-14 07:52:00,
2013-04-14 03:57:00,72.1,70.9,29.91,NW,320,0.0,0.0,96,0.00,,OVC,0.00,WeatherDisplay:10.37,2013-04-14 07:57:00,
2013-04-14 04:02:00,72.5,71.3,29.90,NW,320,0.0,0.0,96,0.00,,OVC,0.00,WeatherDisplay:10.37,2013-04-14 08:02:00,
2013-04-14 04:07:00,73.0,71.8,29.90,NW,320,0.0,0.0,96,0.00,,OVC,0.00,WeatherDisplay:10.37,2013-04-14 08:07:00,
2013-04-14 04:12:00,73.7,72.5,29.90,NW,319,0.0,0.0,96,0.00,,OVC,0.00,WeatherDisplay:10.37,2013-04-14 08:12:00,
2013-04-14 04:17:00,73.9,72.7,29.90,NW,321,0.0,0.0,96,0.00,,OVC,0.00,WeatherDisplay:10.37,2013-04-14 08:17:00,
2013-04-14 04:22:00,73.5,72.3,29.90,NW,321,0.0,0.0,96,0.00,,OVC,0.00,WeatherDisplay:10.37,2013-04-14 08:22:00,
2013-04-14 04:27:00,73.3,72.1,29.90,NW,321,0.0,0.0,96,0.00,,OVC,0.00,WeatherDisplay:10.37,2013-04-14 08:27:00,
2013-04-14 04:32:00,73.3,72.1,29.90,NW,321,0.0,0.0,96,0.00,,OVC,0.00,WeatherDisplay:10.37,2013-04-14 08:32:00,
2013-04-14 04:37:00,73.2,72.0,29.90,NW,321,0.0,0.0,96,0.00,,OVC,0.00,WeatherDisplay:10.37,2013-04-14 08:37:00,
2013-04-14 04:42:00,73.2,72.0,29.90,NW,321,0.0,0.0,96,0.00,,OVC,0.00,WeatherDisplay:10.37,2013-04-14 08:42:00,
2013-04-14 04:48:00,73.7,72.5,29.90,NW,321,0.0,0.0,96,0.00,,OVC,0.00,WeatherDisplay:10.37,2013-04-14 08:48:00,
2013-04-14 04:53:00,73.9,72.7,29.90,NW,321,0.0,0.0,96,0.00,,OVC,0.00,WeatherDisplay:10.37,2013-04-14 08:53:00,
2013-04-14 04:58:00,73.9,72.7,29.90,NW,321,0.0,0.0,96,0.00,,OVC,0.00,WeatherDisplay:10.37,2013-04-14 08:58:00,
2013-04-14 05:03:00,73.9,72.7,29.90,NW,321,0.0,0.0,96,0.00,,OVC,0.00,WeatherDisplay:10.37,2013-04-14 09:03:00,
2013-04-14 05:08:00,73.7,72.5,29.90,NW,321,0.0,0.0,96,0.00,,OVC,0.00,WeatherDisplay:10.37,2013-04-14 09:08:00,
2013-04-14 05:13:00,73.7,72.5,29.90,NW,321,0.0,0.0,96,0.00,,OVC,0.00,WeatherDisplay:10.37,2013-04-14 09:13:00,
2013-04-14 05:18:00,73.9,72.7,29.90,NW,321,0.0,0.0,96,0.00,,OVC,0.00,WeatherDisplay:10.37,2013-04-14 09:18:00,
2013-04-14 05:23:00,74.0,72.8,29.90,NW,321,0.0,0.0,96,0.00,,OVC,0.00,WeatherDisplay:10.37,2013-04-14 09:23:00,
2013-04-14 05:28:00,73.9,72.7,29.90,NW,321,0.0,0.0,96,0.00,,OVC,0.00,WeatherDisplay:10.37,2013-04-14 09:28:00,
2013-04-14 05:33:00,74.0,72.8,29.90,NW,321,0.0,0.0,96,0.00,,OVC,0.00,WeatherDisplay:10.37,2013-04-14 09:33:00,
2013-04-14 05:38:00,74.2,73.0,29.90,NW,321,0.0,0.0,96,0.00,,OVC,0.00,WeatherDisplay:10.37,2013-04-14 09:38:00,
2013-04-14 05:43:00,74.0,72.8,29.90,NW,321,0.0,0.0,96,0.00,,OVC,0.00,WeatherDisplay:10.37,2013-04-14 09:43:00,
2013-04-14 05:48:00,74.0,72.8,29.90,NW,321,0.0,0.0,96,0.00,,OVC,0.00,WeatherDisplay:10.37,2013-04-14 09:48:00,
2013-04-14 05:53:00,73.9,72.7,29.90,NW,321,0.0,0.0,96,0.00,,OVC,0.00,WeatherDisplay:10.37,2013-04-14 09:53:00,
2013-04-14 05:58:00,73.9,72.7,29.90,NW,321,0.0,0.0,96,0.00,,OVC,0.00,WeatherDisplay:10.37,2013-04-14 09:58:00,
2013-04-14 06:03:00,73.7,72.5,29.91,NW,321,0.0,0.0,96,0.00,,OVC,0.00,WeatherDisplay:10.37,2013-04-14 10:03:00,
2013-04-14 06:08:00,73.7,72.5,29.91,NW,321,0.0,0.0,96,0.00,,OVC,0.00,WeatherDisplay:10.37,2013-04-14 10:08:00,
2013-04-14 06:13:00,73.2,72.0,29.91,NW,321,0.0,0.0,96,0.00,,OVC,0.00,WeatherDisplay:10.37,2013-04-14 10:13:00,
2013-04-14 06:18:00,72.8,71.6,29.91,NW,321,0.0,0.0,96,0.00,,OVC,0.00,WeatherDisplay:10.37,2013-04-14 10:18:00,
2013-04-14 06:23:00,72.7,71.5,29.91,NW,321,0.0,0.0,96,0.00,,OVC,0.00,WeatherDisplay:10.37,2013-04-14 10:23:00,
2013-04-14 06:28:00,72.5,71.3,29.91,NW,321,0.0,0.0,96,0.00,,OVC,0.00,WeatherDisplay:10.37,2013-04-14 10:28:00,
2013-04-14 06:33:00,72.7,71.5,29.90,NW,321,0.0,0.0,96,0.00,,OVC,0.00,WeatherDisplay:10.37,2013-04-14 10:33:00,
2013-04-14 06:38:00,72.7,71.5,29.90,NW,321,0.0,0.0,96,0.00,,OVC,0.00,WeatherDisplay:10.37,2013-04-14 10:38:00,
2013-04-14 06:43:00,72.7,71.5,29.90,NW,321,0.0,0.0,96,0.00,,OVC,0.00,WeatherDisplay:10.37,2013-04-14 10:43:00,
2013-04-14 06:48:00,72.8,71.6,29.90,NW,321,0.0,0.0,96,0.00,,OVC,0.00,WeatherDisplay:10.37,2013-04-14 10:48:00,
2013-04-14 06:53:00,73.0,71.8,29.90,NW,321,0.0,0.0,96,0.00,,OVC,0.00,WeatherDisplay:10.37,2013-04-14 10:53:00,
2013-04-14 06:58:00,72.8,71.6,29.90,NW,322,0.0,0.0,96,0.00,,OVC,0.00,WeatherDisplay:10.37,2013-04-14 10:58:00,
2013-04-14 07:03:00,72.8,71.6,29.90,NW,322,0.0,0.0,96,0.00,,OVC,0.00,WeatherDisplay:10.37,2013-04-14 11:03:00,
2013-04-14 07:08:00,72.8,71.6,29.90,NW,322,0.0,0.0,96,0.00,,OVC,0.00,WeatherDisplay:10.37,2013-04-14 11:08:00,
2013-04-14 07:13:00,73.2,72.0,29.90,NW,322,0.0,0.0,96,0.00,,OVC,0.00,WeatherDisplay:10.37,2013-04-14 11:13:00,
2013-04-14 07:18:00,73.3,72.1,29.91,NW,322,0.0,0.0,96,0.00,,OVC,0.00,WeatherDisplay:10.37,2013-04-14 11:18:00,
2013-04-14 07:23:00,73.5,72.3,29.91,NW,322,0.0,0.0,96,0.00,,OVC,0.00,WeatherDisplay:10.37,2013-04-14 11:23:00,
2013-04-14 07:28:00,73.9,72.7,29.91,NW,322,0.0,0.0,96,0.00,,OVC,0.00,WeatherDisplay:10.37,2013-04-14 11:28:00,
2013-04-14 07:33:00,74.0,72.8,29.92,NW,322,0.0,0.0,96,0.00,,OVC,0.00,WeatherDisplay:10.37,2013-04-14 11:33:00,
2013-04-14 07:38:00,74.0,72.8,29.92,NW,323,0.0,0.0,96,0.00,,OVC,0.00,WeatherDisplay:10.37,2013-04-14 11:38:00,
2013-04-14 07:43:00,74.2,73.0,29.92,NW,323,0.0,0.0,96,0.00,,OVC,0.00,WeatherDisplay:10.37,2013-04-14 11:43:00,
2013-04-14 07:48:00,74.4,73.2,29.92,NW,323,0.0,0.0,96,0.00,,OVC,0.00,WeatherDisplay:10.37,2013-04-14 11:48:00,
2013-04-14 07:53:00,74.6,73.4,29.92,NW,323,0.0,0.0,96,0.00,,OVC,0.00,WeatherDisplay:10.37,2013-04-14 11:53:00,
2013-04-14 07:58:00,74.7,73.5,29.92,NW,323,0.0,0.0,96,0.00,,OVC,0.00,WeatherDisplay:10.37,2013-04-14 11:58:00,
2013-04-14 08:03:00,74.9,73.7,29.92,SE,134,0.0,0.0,96,0.00,,OVC,0.00,WeatherDisplay:10.37,2013-04-14 12:03:00,
2013-04-14 08:08:00,75.1,73.9,29.92,SE,136,0.0,0.0,96,0.00,,OVC,0.00,WeatherDisplay:10.37,2013-04-14 12:08:00,
2013-04-14 08:13:00,75.3,74.1,29.92,SE,132,0.0,0.0,96,0.00,,OVC,0.00,WeatherDisplay:10.37,2013-04-14 12:13:00,
2013-04-14 08:18:00,75.6,74.4,29.92,SE,140,0.0,0.0,96,0.00,,OVC,0.00,WeatherDisplay:10.37,2013-04-14 12:18:00,
2013-04-14 08:23:00,75.8,74.6,29.92,SE,142,0.0,0.0,96,0.00,,OVC,0.00,WeatherDisplay:10.37,2013-04-14 12:23:00,
2013-04-14 08:28:00,76.0,74.8,29.92,SE,141,3.5,0.0,96,0.00,,OVC,0.00,WeatherDisplay:10.37,2013-04-14 12:28:00,
2013-04-14 08:33:00,76.1,74.9,29.92,SE,145,10.4,10.4,96,0.00,,OVC,0.00,WeatherDisplay:10.37,2013-04-14 12:33:00,
2013-04-14 08:38:00,76.3,74.8,29.92,SE,136,3.0,0.0,95,0.00,,OVC,0.00,WeatherDisplay:10.37,2013-04-14 12:38:00,
2013-04-14 08:43:00,76.3,74.8,29.92,SE,142,13.8,13.8,95,0.00,,OVC,0.00,WeatherDisplay:10.37,2013-04-14 12:43:00,
2013-04-14 08:48:00,76.3,74.4,29.92,SSE,155,8.0,8.0,94,0.00,,OVC,0.00,WeatherDisplay:10.37,2013-04-14 12:48:00,
2013-04-14 08:53:00,76.5,74.3,29.92,SE,145,0.0,0.0,93,0.00,,OVC,0.00,WeatherDisplay:10.37,2013-04-14 12:53:00,
2013-04-14 08:58:00,77.0,74.8,29.92,SE,136,0.0,0.0,93,0.00,,OVC,0.00,WeatherDisplay:10.37,2013-04-14 12:58:00,
2013-04-14 09:03:00,77.0,74.5,29.93,SE,128,0.0,0.0,92,0.00,,OVC,0.00,WeatherDisplay:10.37,2013-04-14 13:03:00,
2013-04-14 09:09:00,77.2,74.4,29.93,SSE,148,0.0,0.0,91,0.00,,OVC,0.00,WeatherDisplay:10.37,2013-04-14 13:09:00,
2013-04-14 09:14:00,77.4,74.2,29.93,SE,144,13.8,13.8,90,0.00,,OVC,0.00,WeatherDisplay:10.37,2013-04-14 13:14:00,
2013-04-14 09:19:00,77.7,73.9,29.93,SE,138,9.2,9.2,88,0.00,,OVC,0.00,WeatherDisplay:10.37,2013-04-14 13:19:00,
2013-04-14 09:24:00,78.1,73.9,29.93,SE,146,0.0,0.0,87,0.00,,OVC,0.00,WeatherDisplay:10.37,2013-04-14 13:24:00,
2013-04-14 09:29:00,78.1,73.9,29.93,SE,146,19.6,19.6,87,0.00,,OVC,0.00,WeatherDisplay:10.37,2013-04-14 13:29:00,
2013-04-14 09:34:00,78.6,74.1,29.93,SSE,167,2.3,2.3,86,0.00,,OVC,0.00,WeatherDisplay:10.37,2013-04-14 13:34:00,
2013-04-14 09:39:00,78.8,73.2,29.93,SSE,157,11.5,11.5,83,0.00,,OVC,0.00,WeatherDisplay:10.37,2013-04-14 13:39:00,
2013-04-14 09:44:00,78.8,72.1,29.93,SSE,148,17.3,17.3,80,0.00,,OVC,0.00,WeatherDisplay:10.37,2013-04-14 13:44:00,
2013-04-14 09:49:00,79.4,73.1,29.93,SSE,155,0.0,0.0,81,0.00,,OVC,0.00,WeatherDisplay:10.37,2013-04-14 13:49:00,
2013-04-14 09:54:00,79.8,73.1,29.93,SE,137,8.1,8.1,80,0.00,,OVC,0.00,WeatherDisplay:10.37,2013-04-14 13:54:00,
2013-04-14 09:59:00,80.7,73.6,29.93,ESE,116,8.1,8.1,79,0.00,,OVC,0.00,WeatherDisplay:10.37,2013-04-14 13:59:00,
2013-04-14 10:04:00,81.1,72.8,29.93,East,99,26.5,26.5,76,0.00,,OVC,0.00,WeatherDisplay:10.37,2013-04-14 14:04:00,
2013-04-14 10:09:00,81.6,72.9,29.93,SSE,148,13.8,13.8,75,0.00,,OVC,0.00,WeatherDisplay:10.37,2013-04-14 14:09:00,
2013-04-14 10:14:00,81.4,72.7,29.93,SE,146,12.0,12.0,75,0.00,,OVC,0.00,WeatherDisplay:10.37,2013-04-14 14:14:00,
2013-04-14 10:19:00,81.4,72.3,29.93,SE,143,17.3,17.3,74,0.00,,OVC,0.00,WeatherDisplay:10.37,2013-04-14 14:19:00,
2013-04-14 10:24:00,81.8,73.1,29.93,SSE,153,5.0,5.0,75,0.00,,OVC,0.00,WeatherDisplay:10.37,2013-04-14 14:24:00,
2013-04-14 10:29:00,81.8,72.7,29.93,SE,146,19.0,19.0,74,0.00,,OVC,0.00,WeatherDisplay:10.37,2013-04-14 14:29:00,
2013-04-14 10:34:00,81.4,71.9,29.93,SE,142,19.6,19.6,73,0.00,,OVC,0.00,WeatherDisplay:10.37,2013-04-14 14:34:00,
2013-04-14 10:39:00,81.4,72.3,29.93,SSE,153,15.0,15.0,74,0.00,,OVC,0.00,WeatherDisplay:10.37,2013-04-14 14:39:00,
2013-04-14 10:44:00,81.6,72.1,29.93,SSE,167,19.6,19.6,73,0.00,,OVC,0.00,WeatherDisplay:10.37,2013-04-14 14:44:00,
2013-04-14 10:49:00,81.8,71.9,29.93,SE,144,20.7,20.7,72,0.00,,OVC,0.00,WeatherDisplay:10.37,2013-04-14 14:49:00,
2013-04-14 10:54:00,82.2,71.9,29.93,SSE,149,13.8,13.8,71,0.00,,OVC,0.00,WeatherDisplay:10.37,2013-04-14 14:54:00,
2013-04-14 10:59:00,82.6,72.7,29.94,ESE,120,8.1,8.1,72,0.00,,OVC,0.00,WeatherDisplay:10.37,2013-04-14 14:59:00,
2013-04-14 11:04:00,83.0,72.6,29.94,SE,142,3.5,0.0,71,0.00,,OVC,0.00,WeatherDisplay:10.37,2013-04-14 15:04:00,
2013-04-14 11:09:00,83.4,73.0,29.94,SSE,150,11.5,11.5,71,0.00,,OVC,0.00,WeatherDisplay:10.37,2013-04-14 15:09:00,
2013-04-14 11:14:00,82.8,71.2,29.93,SSE,150,28.0,28.0,68,0.00,,OVC,0.00,WeatherDisplay:10.37,2013-04-14 15:14:00,
2013-04-14 11:19:00,82.4,71.6,29.93,SSE,159,19.6,19.6,70,0.00,,OVC,0.00,WeatherDisplay:10.37,2013-04-14 15:19:00,
2013-04-14 11:24:00,82.4,71.6,29.93,SSE,152,18.4,18.4,70,0.00,,OVC,0.00,WeatherDisplay:10.37,2013-04-14 15:24:00,
2013-04-14 11:29:00,82.2,71.4,29.94,SSW,192,19.6,19.6,70,0.00,,OVC,0.00,WeatherDisplay:10.37,2013-04-14 15:29:00,
2013-04-14 11:34:00,81.8,71.5,29.94,SE,134,21.9,21.9,71,0.00,,OVC,0.00,WeatherDisplay:10.37,2013-04-14 15:34:00,
2013-04-14 11:39:00,81.8,71.9,29.94,SE,138,26.5,26.5,72,0.00,,OVC,0.00,WeatherDisplay:10.37,2013-04-14 15:39:00,
2013-04-14 11:44:00,82.4,72.5,29.94,ESE,111,9.0,12.7,72,0.00,,OVC,0.00,WeatherDisplay:10.37,2013-04-14 15:44:00,
2013-04-14 11:49:00,82.4,72.0,29.94,SSE,148,22.0,22.0,71,0.00,,OVC,0.00,WeatherDisplay:10.37,2013-04-14 15:49:00,
2013-04-14 11:54:00,82.6,71.8,29.94,South,181,20.7,20.7,70,0.00,,OVC,0.00,WeatherDisplay:10.37,2013-04-14 15:54:00,
2013-04-14 11:59:00,82.8,71.2,29.94,SE,146,13.8,13.8,68,0.00,,OVC,0.00,WeatherDisplay:10.37,2013-04-14 15:59:00,
2013-04-14 12:04:00,83.2,72.4,29.94,SSE,150,1.2,1.2,70,0.00,,OVC,0.00,WeatherDisplay:10.37,2013-04-14 16:04:00,
2013-04-14 12:09:00,83.2,71.5,29.94,ESE,114,19.6,19.6,68,0.00,,OVC,0.00,WeatherDisplay:10.37,2013-04-14 16:09:00,
2013-04-14 12:14:00,83.6,71.9,29.94,SE,131,20.7,20.7,68,0.00,,OVC,0.00,WeatherDisplay:10.37,2013-04-14 16:14:00,
2013-04-14 12:19:00,83.6,71.0,29.94,SSE,152,21.9,0.0,66,0.00,,OVC,0.00,WeatherDisplay:10.37,2013-04-14 16:19:00,
2013-04-14 12:24:00,83.4,71.3,29.94,SSE,168,20.7,20.7,67,0.00,,OVC,0.00,WeatherDisplay:10.37,2013-04-14 16:24:00,
2013-04-14 12:29:00,83.4,72.2,29.93,SSE,157,24.0,24.0,69,0.00,,OVC,0.00,WeatherDisplay:10.37,2013-04-14 16:29:00,
2013-04-14 12:34:00,83.8,73.0,29.93,East,101,6.9,6.9,70,0.00,,OVC,0.00,WeatherDisplay:10.37,2013-04-14 16:34:00,
2013-04-14 12:39:00,83.8,72.1,29.93,SE,144,19.6,19.6,68,0.00,,OVC,0.00,WeatherDisplay:10.37,2013-04-14 16:39:00,
2013-04-14 12:44:00,83.8,71.7,29.93,SE,131,20.7,20.7,67,0.00,,OVC,0.00,WeatherDisplay:10.37,2013-04-14 16:44:00,
2013-04-14 12:49:00,83.8,71.2,29.93,SSE,151,27.6,27.6,66,0.00,,OVC,0.00,WeatherDisplay:10.37,2013-04-14 16:49:00,
2013-04-14 12:54:00,84.1,71.1,29.93,SSE,165,29.9,29.9,65,0.00,,OVC,0.00,WeatherDisplay:10.37,2013-04-14 16:54:00,
2013-04-14 12:59:00,83.8,71.7,29.93,ENE,57,27.6,27.6,67,0.00,,OVC,0.00,WeatherDisplay:10.37,2013-04-14 16:59:00,
2013-04-14 13:04:00,84.0,71.4,29.93,SE,141,15.0,15.0,66,0.00,,OVC,0.00,WeatherDisplay:10.37,2013-04-14 17:04:00,
2013-04-14 13:09:00,83.6,70.6,29.93,SSE,156,20.7,20.7,65,0.00,,OVC,0.00,WeatherDisplay:10.37,2013-04-14 17:09:00,
2013-04-14 13:14:00,84.0,71.0,29.93,South,171,27.6,27.6,65,0.00,,OVC,0.00,WeatherDisplay:10.37,2013-04-14 17:14:00,
2013-04-14 13:20:00,83.6,70.6,29.93,SE,141,21.9,21.9,65,0.00,,OVC,0.00,WeatherDisplay:10.37,2013-04-14 17:20:00,
2013-04-14 13:25:00,84.1,70.6,29.93,SSE,158,35.7,35.7,64,0.00,,OVC,0.00,WeatherDisplay:10.37,2013-04-14 17:25:00,
2013-04-14 13:30:00,84.5,71.4,29.92,SE,138,18.4,18.4,65,0.00,,OVC,0.00,WeatherDisplay:10.37,2013-04-14 17:30:00,
2013-04-14 13:35:00,84.5,70.5,29.92,SSE,161,28.8,28.8,63,0.00,,OVC,0.00,WeatherDisplay:10.37,2013-04-14 17:35:00,
2013-04-14 13:40:00,84.9,70.9,29.92,ESE,117,16.1,16.1,63,0.00,,OVC,0.00,WeatherDisplay:10.37,2013-04-14 17:40:00,
2013-04-14 13:45:00,84.9,70.9,29.91,SE,139,17.3,17.3,63,0.00,,OVC,0.00,WeatherDisplay:10.37,2013-04-14 17:45:00,
2013-04-14 13:50:00,85.1,70.1,29.91,SSE,161,30.0,30.0,61,0.00,,OVC,0.00,WeatherDisplay:10.37,2013-04-14 17:50:00,
2013-04-14 13:55:00,84.9,70.9,29.91,SE,146,26.5,26.5,63,0.00,,OVC,0.00,WeatherDisplay:10.37,2013-04-14 17:55:00,
2013-04-14 14:00:00,84.9,69.0,29.90,SE,146,29.9,29.9,59,0.00,,OVC,0.00,WeatherDisplay:10.37,2013-04-14 18:00:00,
2013-04-14 14:05:00,85.1,71.1,29.90,SSE,155,18.0,18.0,63,0.00,,OVC,0.00,WeatherDisplay:10.37,2013-04-14 18:05:00,
2013-04-14 14:10:00,85.5,71.0,29.90,SE,142,11.5,11.5,62,0.00,,OVC,0.00,WeatherDisplay:10.37,2013-04-14 18:10:00,
2013-04-14 14:15:00,85.3,70.8,29.90,SSE,153,19.6,19.6,62,0.00,,OVC,0.00,WeatherDisplay:10.37,2013-04-14 18:15:00,
2013-04-14 14:20:00,84.7,70.2,29.90,SE,130,31.1,31.1,62,0.00,,OVC,0.00,WeatherDisplay:10.37,2013-04-14 18:20:00,
2013-04-14 14:25:00,85.1,70.6,29.90,SE,140,0.0,0.0,62,0.00,,OVC,0.00,WeatherDisplay:10.37,2013-04-14 18:25:00,
2013-04-14 14:30:00,85.3,70.3,29.90,SSE,157,31.1,31.1,61,0.00,,OVC,0.00,WeatherDisplay:10.37,2013-04-14 18:30:00,
2013-04-14 14:35:00,84.5,71.0,29.90,SSE,164,26.5,26.5,64,0.00,,OVC,0.00,WeatherDisplay:10.37,2013-04-14 18:35:00,
2013-04-14 14:40:00,84.5,69.6,29.90,SE,146,21.9,21.9,61,0.00,,OVC,0.00,WeatherDisplay:10.37,2013-04-14 18:40:00,
2013-04-14 14:45:00,84.1,69.7,29.90,SE,145,20.7,20.7,62,0.00,,OVC,0.00,WeatherDisplay:10.37,2013-04-14 18:45:00,
2013-04-14 14:50:00,84.0,69.6,29.90,SSE,159,27.6,27.6,62,0.00,,OVC,0.00,WeatherDisplay:10.37,2013-04-14 18:50:00,
2013-04-14 14:55:00,84.7,70.7,29.90,SE,146,3.5,3.5,63,0.00,,OVC,0.00,WeatherDisplay:10.37,2013-04-14 18:55:00,
2013-04-14 15:00:00,84.9,71.4,29.89,SSE,163,10.4,10.4,64,0.00,,OVC,0.00,WeatherDisplay:10.37,2013-04-14 19:00:00,
2013-04-14 15:05:00,84.5,70.5,29.89,SE,130,19.6,19.6,63,0.00,,OVC,0.00,WeatherDisplay:10.37,2013-04-14 19:05:00,
2013-04-14 15:10:00,84.7,71.6,29.89,SE,140,11.5,11.5,65,0.00,,OVC,0.00,WeatherDisplay:10.37,2013-04-14 19:10:00,
2013-04-14 15:15:00,84.1,71.5,29.89,SSE,157,15.0,15.0,66,0.00,,OVC,0.00,WeatherDisplay:10.37,2013-04-14 19:15:00,
2013-04-14 15:20:00,84.7,72.5,29.89,SE,126,13.8,13.8,67,0.00,,OVC,0.00,WeatherDisplay:10.37,2013-04-14 19:20:00,
2013-04-14 15:25:00,84.9,72.7,29.89,SSE,156,16.1,16.1,67,0.00,,OVC,0.00,WeatherDisplay:10.37,2013-04-14 19:25:00,
2013-04-14 15:30:00,84.1,71.5,29.89,SE,130,8.1,8.1,66,0.00,,OVC,0.00,WeatherDisplay:10.37,2013-04-14 19:30:00,
2013-04-14 15:35:00,84.5,72.8,29.89,SE,142,2.3,2.3,68,0.00,,OVC,0.00,WeatherDisplay:10.37,2013-04-14 19:35:00,
2013-04-14 15:40:00,84.7,72.1,29.89,South,169,25.3,25.3,66,0.00,,OVC,0.00,WeatherDisplay:10.37,2013-04-14 19:40:00,
2013-04-14 15:45:00,84.1,70.6,29.88,SSE,151,29.9,29.9,64,0.00,,OVC,0.00,WeatherDisplay:10.37,2013-04-14 19:45:00,
2013-04-14 15:50:00,84.3,70.8,29.88,SSE,150,19.6,19.6,64,0.00,,OVC,0.00,WeatherDisplay:10.37,2013-04-14 19:50:00,
2013-04-14 15:55:00,84.5,71.0,29.88,South,180,4.6,0.0,64,0.00,,OVC,0.00,WeatherDisplay:10.37,2013-04-14 19:55:00,
2013-04-14 16:00:00,84.7,69.8,29.88,SE,146,19.6,19.6,61,0.00,,OVC,0.00,WeatherDisplay:10.37,2013-04-14 20:00:00,
2013-04-14 16:05:00,84.9,69.9,29.88,SSE,165,19.6,19.6,61,0.00,,OVC,0.00,WeatherDisplay:10.37,2013-04-14 20:05:00,
2013-04-14 16:10:00,85.1,71.1,29.88,SE,126,25.3,25.3,63,0.00,,OVC,0.00,WeatherDisplay:10.37,2013-04-14 20:10:00,
2013-04-14 16:15:00,84.7,70.7,29.87,SE,145,25.3,25.3,63,0.00,,OVC,0.00,WeatherDisplay:10.37,2013-04-14 20:15:00,
2013-04-14 16:20:00,84.5,70.5,29.87,ENE,74,16.1,16.1,63,0.00,,OVC,0.00,WeatherDisplay:10.37,2013-04-14 20:20:00,
2013-04-14 16:25:00,84.9,70.9,29.87,ESE,118,11.5,11.5,63,0.00,,OVC,0.00,WeatherDisplay:10.37,2013-04-14 20:25:00,
2013-04-14 16:30:00,84.7,70.2,29.87,SE,144,12.7,12.7,62,0.00,,OVC,0.00,WeatherDisplay:10.37,2013-04-14 20:30:00,
2013-04-14 16:35:00,84.9,69.5,29.87,SSE,150,20.7,20.7,60,0.00,,OVC,0.00,WeatherDisplay:10.37,2013-04-14 20:35:00,
2013-04-14 16:40:00,84.9,70.9,29.87,SE,124,3.0,3.0,63,0.00,,OVC,0.00,WeatherDisplay:10.37,2013-04-14 20:40:00,
2013-04-14 16:45:00,84.9,70.4,29.87,SE,142,16.0,16.0,62,0.00,,OVC,0.00,WeatherDisplay:10.37,2013-04-14 20:45:00,
2013-04-14 16:50:00,84.5,70.0,29.87,SE,131,20.7,20.7,62,0.00,,OVC,0.00,WeatherDisplay:10.37,2013-04-14 20:50:00,
2013-04-14 16:55:00,84.0,70.0,29.87,SE,126,19.6,19.6,63,0.00,,OVC,0.00,WeatherDisplay:10.37,2013-04-14 20:55:00,
2013-04-14 17:00:00,84.3,70.8,29.87,SE,129,0.0,0.0,64,0.00,,OVC,0.00,WeatherDisplay:10.37,2013-04-14 21:00:00,
2013-04-14 17:05:00,84.1,70.6,29.87,SE,140,20.7,20.7,64,0.00,,OVC,0.00,WeatherDisplay:10.37,2013-04-14 21:05:00,
2013-04-14 17:10:00,84.0,70.5,29.87,SE,128,16.1,16.1,64,0.00,,OVC,0.00,WeatherDisplay:10.37,2013-04-14 21:10:00,
2013-04-14 17:15:00,84.1,71.1,29.87,SE,128,18.4,18.4,65,0.00,,OVC,0.00,WeatherDisplay:10.37,2013-04-14 21:15:00,
2013-04-14 17:20:00,84.0,71.0,29.87,SSE,153,15.0,0.0,65,0.00,,OVC,0.00,WeatherDisplay:10.37,2013-04-14 21:20:00,
2013-04-14 17:25:00,84.0,71.4,29.87,SE,132,5.0,5.0,66,0.00,,OVC,0.00,WeatherDisplay:10.37,2013-04-14 21:25:00,
2013-04-14 17:30:00,83.8,71.7,29.87,SSE,153,26.0,26.0,67,0.00,,OVC,0.00,WeatherDisplay:10.37,2013-04-14 21:30:00,
2013-04-14 17:35:00,83.6,71.5,29.87,SE,130,9.2,9.2,67,0.00,,OVC,0.00,WeatherDisplay:10.37,2013-04-14 21:35:00,
2013-04-14 17:40:00,83.6,71.9,29.87,ESE,119,12.7,12.7,68,0.00,,OVC,0.00,WeatherDisplay:10.37,2013-04-14 21:40:00,
2013-04-14 17:45:00,83.8,72.1,29.87,SE,141,18.4,18.4,68,0.00,,OVC,0.00,WeatherDisplay:10.37,2013-04-14 21:45:00,
2013-04-14 17:50:00,83.4,71.7,29.87,ESE,105,18.4,18.4,68,0.00,,OVC,0.00,WeatherDisplay:10.37,2013-04-14 21:50:00,
2013-04-14 17:56:00,82.8,71.6,29.87,SSE,163,20.7,20.7,69,0.00,,OVC,0.00,WeatherDisplay:10.37,2013-04-14 21:56:00,
2013-04-14 18:01:00,82.8,72.0,29.87,SE,132,1.2,1.2,70,0.00,,OVC,0.00,WeatherDisplay:10.37,2013-04-14 22:01:00,
2013-04-14 18:06:00,82.6,71.8,29.87,East,101,8.1,8.1,70,0.00,,OVC,0.00,WeatherDisplay:10.37,2013-04-14 22:06:00,
2013-04-14 18:11:00,82.8,72.4,29.87,SE,142,17.3,17.3,71,0.00,,OVC,0.00,WeatherDisplay:10.37,2013-04-14 22:11:00,
2013-04-14 18:16:00,82.6,71.8,29.88,SE,141,0.0,0.0,70,0.00,,OVC,0.00,WeatherDisplay:10.37,2013-04-14 22:16:00,
2013-04-14 18:21:00,82.6,72.2,29.88,ESE,120,13.8,13.8,71,0.00,,OVC,0.00,WeatherDisplay:10.37,2013-04-14 22:21:00,
2013-04-14 18:26:00,82.4,72.0,29.88,SE,134,6.9,6.9,71,0.00,,OVC,0.00,WeatherDisplay:10.37,2013-04-14 22:26:00,
2013-04-14 18:31:00,82.2,71.9,29.89,NE,37,0.0,0.0,71,0.00,,OVC,0.00,WeatherDisplay:10.37,2013-04-14 22:31:00,
2013-04-14 18:36:00,82.4,72.5,29.89,SE,127,5.8,5.8,72,0.00,,OVC,0.00,WeatherDisplay:10.37,2013-04-14 22:36:00,
2013-04-14 18:41:00,82.0,72.1,29.89,SSE,148,0.0,0.0,72,0.00,,OVC,0.00,WeatherDisplay:10.37,2013-04-14 22:41:00,
2013-04-14 18:46:00,81.8,71.9,29.89,ESE,109,20.7,20.7,72,0.00,,OVC,0.00,WeatherDisplay:10.37,2013-04-14 22:46:00,
2013-04-14 18:51:00,81.6,71.7,29.89,NNE,19,19.6,19.6,72,0.00,,OVC,0.00,WeatherDisplay:10.37,2013-04-14 22:51:00,
2013-04-14 18:56:00,81.4,71.9,29.89,SE,137,9.2,9.2,73,0.00,,OVC,0.00,WeatherDisplay:10.37,2013-04-14 22:56:00,
2013-04-14 19:01:00,81.1,71.6,29.89,SE,139,8.1,8.1,73,0.00,,OVC,0.00,WeatherDisplay:10.37,2013-04-14 23:01:00,
2013-04-14 19:06:00,81.1,72.0,29.89,SE,144,9.2,9.2,74,0.00,,OVC,0.00,WeatherDisplay:10.37,2013-04-14 23:06:00,
2013-04-14 19:12:00,80.9,71.8,29.89,SSE,148,11.5,11.5,74,0.00,,OVC,0.00,WeatherDisplay:10.37,2013-04-14 23:12:00,
2013-04-14 19:17:00,80.7,72.0,29.89,SSE,159,21.9,21.9,75,0.00,,OVC,0.00,WeatherDisplay:10.37,2013-04-14 23:17:00,
2013-04-14 19:22:00,80.5,72.2,29.89,ESE,112,10.4,10.4,76,0.00,,OVC,0.00,WeatherDisplay:10.37,2013-04-14 23:22:00,
2013-04-14 19:27:00,80.3,72.4,29.89,SE,134,3.5,3.5,77,0.00,,OVC,0.00,WeatherDisplay:10.37,2013-04-14 23:27:00,
2013-04-14 19:32:00,80.1,72.2,29.89,East,87,4.6,0.0,77,0.00,,OVC,0.00,WeatherDisplay:10.37,2013-04-14 23:32:00,
2013-04-14 19:37:00,79.9,72.0,29.89,SSE,152,25.3,25.3,77,0.00,,OVC,0.00,WeatherDisplay:10.37,2013-04-14 23:37:00,
2013-04-14 19:42:00,79.8,72.3,29.89,SE,126,13.8,13.8,78,0.00,,OVC,0.00,WeatherDisplay:10.37,2013-04-14 23:42:00,
2013-04-14 19:47:00,79.6,72.1,29.89,SE,132,6.0,6.0,78,0.00,,OVC,0.00,WeatherDisplay:10.37,2013-04-14 23:47:00,
2013-04-14 19:52:00,79.4,72.3,29.89,SE,136,6.9,6.9,79,0.00,,OVC,0.00,WeatherDisplay:10.37,2013-04-14 23:52:00,
2013-04-14 19:57:00,79.4,72.7,29.89,SE,138,0.0,0.0,80,0.00,,OVC,0.00,WeatherDisplay:10.37,2013-04-14 23:57:00,
2013-04-14 20:02:00,79.2,72.5,29.89,SE,146,9.2,9.2,80,0.00,,OVC,0.00,WeatherDisplay:10.37,2013-04-15 00:02:00,
2013-04-14 20:07:00,79.0,72.3,29.89,SE,146,0.0,3.8,80,0.00,,OVC,0.00,WeatherDisplay:10.37,2013-04-15 00:07:00,
2013-04-14 20:13:00,79.0,72.7,29.89,SSE,155,17.0,17.0,81,0.00,,OVC,0.00,WeatherDisplay:10.37,2013-04-15 00:13:00,
2013-04-14 20:18:00,79.0,72.7,29.89,SE,145,16.1,16.1,81,0.00,,OVC,0.00,WeatherDisplay:10.37,2013-04-15 00:18:00,
2013-04-14 20:23:00,79.0,72.7,29.89,SSE,148,12.7,12.7,81,0.00,,OVC,0.00,WeatherDisplay:10.37,2013-04-15 00:23:00,
2013-04-14 20:28:00,78.8,72.5,29.89,SE,142,3.5,3.5,81,0.00,,OVC,0.00,WeatherDisplay:10.37,2013-04-15 00:28:00,
2013-04-14 20:33:00,78.8,72.5,29.89,SE,126,10.4,0.0,81,0.00,,OVC,0.00,WeatherDisplay:10.37,2013-04-15 00:33:00,
2013-04-14 20:38:00,78.8,72.5,29.89,SE,127,9.2,0.0,81,0.00,,OVC,0.00,WeatherDisplay:10.37,2013-04-15 00:38:00,
2013-04-14 20:43:00,78.6,72.6,29.89,SE,136,1.2,1.2,82,0.00,,OVC,0.00,WeatherDisplay:10.37,2013-04-15 00:43:00,
2013-04-14 20:48:00,78.6,72.6,29.89,SE,144,12.7,12.7,82,0.00,,OVC,0.00,WeatherDisplay:10.37,2013-04-15 00:48:00,
2013-04-14 20:53:00,78.6,72.6,29.89,SSE,147,0.0,0.0,82,0.00,,OVC,0.00,WeatherDisplay:10.37,2013-04-15 00:53:00,
2013-04-14 20:58:00,78.6,72.6,29.89,SE,136,0.0,0.0,82,0.00,,OVC,0.00,WeatherDisplay:10.37,2013-04-15 00:58:00,
2013-04-14 21:03:00,78.5,72.5,29.90,SSE,148,0.0,0.0,82,0.00,,OVC,0.00,WeatherDisplay:10.37,2013-04-15 01:03:00,
2013-04-14 21:08:00,78.5,72.5,29.90,SSE,157,16.1,16.1,82,0.00,,OVC,0.00,WeatherDisplay:10.37,2013-04-15 01:08:00,
2013-04-14 21:13:00,78.6,72.6,29.90,SE,136,0.0,0.0,82,0.00,,OVC,0.00,WeatherDisplay:10.37,2013-04-15 01:13:00,
2013-04-14 21:18:00,78.5,72.5,29.90,SE,141,0.0,0.0,82,0.00,,OVC,0.00,WeatherDisplay:10.37,2013-04-15 01:18:00,
2013-04-14 21:23:00,78.5,72.5,29.90,SSE,147,0.0,0.0,82,0.00,,OVC,0.00,WeatherDisplay:10.37,2013-04-15 01:23:00,
2013-04-14 21:28:00,78.5,72.5,29.90,SSE,148,1.0,1.0,82,0.00,,OVC,0.00,WeatherDisplay:10.37,2013-04-15 01:28:00,
2013-04-14 21:33:00,78.5,72.5,29.91,SE,126,0.0,0.0,82,0.00,,OVC,0.00,WeatherDisplay:10.37,2013-04-15 01:33:00,
2013-04-14 21:38:00,78.3,72.3,29.91,SE,145,10.4,10.4,82,0.00,,OVC,0.00,WeatherDisplay:10.37,2013-04-15 01:38:00,
2013-04-14 21:43:00,78.3,72.3,29.91,SE,145,5.8,5.8,82,0.00,,OVC,0.00,WeatherDisplay:10.37,2013-04-15 01:43:00,
2013-04-14 21:48:00,78.3,72.3,29.91,SE,142,0.0,0.0,82,0.00,,OVC,0.00,WeatherDisplay:10.37,2013-04-15 01:48:00,
2013-04-14 21:53:00,78.3,72.7,29.91,ESE,121,2.3,2.3,83,0.00,,OVC,0.00,WeatherDisplay:10.37,2013-04-15 01:53:00,
2013-04-14 21:58:00,78.3,72.7,29.91,SE,146,0.0,0.0,83,0.00,,OVC,0.00,WeatherDisplay:10.37,2013-04-15 01:58:00,
2013-04-14 22:03:00,78.3,73.1,29.92,SE,144,3.5,3.5,84,0.00,,OVC,0.00,WeatherDisplay:10.37,2013-04-15 02:03:00,
2013-04-14 22:08:00,78.3,73.1,29.92,SSE,159,0.0,0.0,84,0.00,,OVC,0.00,WeatherDisplay:10.37,2013-04-15 02:08:00,
2013-04-14 22:13:00,78.3,73.1,29.92,SSE,147,10.4,10.4,84,0.00,,OVC,0.00,WeatherDisplay:10.37,2013-04-15 02:13:00,
2013-04-14 22:18:00,78.3,73.1,29.92,SSE,159,2.0,2.0,84,0.00,,OVC,0.00,WeatherDisplay:10.37,2013-04-15 02:18:00,
2013-04-14 22:23:00,78.3,73.1,29.92,SE,144,0.0,0.0,84,0.00,,OVC,0.00,WeatherDisplay:10.37,2013-04-15 02:23:00,
2013-04-14 22:28:00,78.1,72.9,29.92,SSE,153,8.0,8.0,84,0.00,,OVC,0.00,WeatherDisplay:10.37,2013-04-15 02:28:00,
2013-04-14 22:33:00,78.1,72.9,29.92,SE,143,5.8,5.8,84,0.00,,OVC,0.00,WeatherDisplay:10.37,2013-04-15 02:33:00,
2013-04-14 22:38:00,78.1,72.9,29.92,SSE,148,0.0,0.0,84,0.00,,OVC,0.00,WeatherDisplay:10.37,2013-04-15 02:38:00,
2013-04-14 22:43:00,78.1,73.2,29.92,SSE,154,0.0,0.0,85,0.00,,OVC,0.00,WeatherDisplay:10.37,2013-04-15 02:43:00,
2013-04-14 22:48:00,78.1,73.2,29.92,SSE,151,0.0,0.0,85,0.00,,OVC,0.00,WeatherDisplay:10.37,2013-04-15 02:48:00,
2013-04-14 22:53:00,78.1,73.2,29.92,SSE,158,0.0,0.0,85,0.00,,OVC,0.00,WeatherDisplay:10.37,2013-04-15 02:53:00,
2013-04-14 22:58:00,77.9,73.0,29.92,SE,140,0.0,0.0,85,0.00,,OVC,0.00,WeatherDisplay:10.37,2013-04-15 02:58:00,
2013-04-14 23:03:00,77.9,73.0,29.92,SSE,150,0.0,0.0,85,0.00,,OVC,0.00,WeatherDisplay:10.37,2013-04-15 03:03:00,
2013-04-14 23:08:00,77.9,73.0,29.92,SSE,162,0.0,0.0,85,0.00,,OVC,0.00,WeatherDisplay:10.37,2013-04-15 03:08:00,
2013-04-14 23:13:00,77.7,72.8,29.92,SSE,159,0.0,0.0,85,0.00,,OVC,0.00,WeatherDisplay:10.37,2013-04-15 03:13:00,
2013-04-14 23:18:00,77.7,73.2,29.92,SSE,148,0.0,0.0,86,0.00,,OVC,0.00,WeatherDisplay:10.37,2013-04-15 03:18:00,
2013-04-14 23:23:00,77.6,73.1,29.92,SSE,147,0.0,0.0,86,0.00,,OVC,0.00,WeatherDisplay:10.37,2013-04-15 03:23:00,
2013-04-14 23:28:00,77.6,73.1,29.92,SE,146,0.0,0.0,86,0.00,,OVC,0.00,WeatherDisplay:10.37,2013-04-15 03:28:00,
2013-04-14 23:33:00,77.6,73.1,29.93,SE,146,0.0,0.0,86,0.00,,OVC,0.00,WeatherDisplay:10.37,2013-04-15 03:33:00,
2013-04-14 23:38:00,77.6,73.1,29.93,SE,146,0.0,0.0,86,0.00,,OVC,0.00,WeatherDisplay:10.37,2013-04-15 03:38:00,
2013-04-14 23:43:00,77.6,73.1,29.93,SE,146,0.0,0.0,86,0.00,,OVC,0.00,WeatherDisplay:10.37,2013-04-15 03:43:00,
2013-04-14 23:48:00,77.4,72.9,29.93,SE,146,0.0,0.0,86,0.00,,OVC,0.00,WeatherDisplay:10.37,2013-04-15 03:48:00,
2013-04-14 23:53:00,77.2,72.7,29.93,SE,146,0.0,0.0,86,0.00,,OVC,0.00,WeatherDisplay:10.37,2013-04-15 03:53:00,
2013-04-14 23:58:00,77.2,73.0,29.93,SE,146,0.0,0.0,87,0.00,,OVC,0.00,WeatherDisplay:10.37,2013-04-15 03:58:00,